Tracking 29089 objects as of 12-Jul-2024
HD Live streaming from Space Station
objects crossing your sky now

ATLAS 5 CENTAUR DEB

Track ATLAS 5 CENTAUR DEB now!


NORAD ID: 44654
Int'l Code: 2018-079Q
Perigee: 8,661.1 km
Apogee: 35,537.7 km
Inclination: 12.5 °
Period: 796.8 minutes
Semi major axis: 28470 km
RCS: Unknown
Launch date: October 17, 2018
Source: United States (US)
Launch site: AIR FORCE EASTERN TEST RANGE (AFETR)

Note: This is SATELLITE DEBRIS
Your satellite tracking list
Your tracking list is empty




NASA's NSSDC Master Catalog

Two Line Element Set (TLE):
1 44654U 18079Q   24187.24998196 -.00000166  00000-0  00000+0 0  9991
2 44654  12.4772  94.1921 4720092 194.1405 145.7382  1.80722851 32427
Source of the keplerian elements: AFSPC